Regional Weather Roundup
Issued by NWS

Home | Current Version | Previous Version | Graphics & Text | Print | Product List | Glossary On
Versions: 1 2 3 4 5 6 7 8 9 10 11 12 13 14 15 16 17 18 19 20 21 22 23 24 25 26 27 28 29 30 31 32 33 34 35 36 37 38 39 40 41 42 43 44 45 46 47 48 49 50
000
ASUS45 KTFX 300904
RWRMT
MONTANA HOURLY WEATHER ROUNDUP
NATIONAL WEATHER SERVICE GREAT FALLS MT
304 AM MDT THU OCT 30 2014

NOTE: "FAIR" INDICATES FEW OR NO CLOUDS BELOW 12000 FEET WITH NO
SIGNIFICANT WEATHER AND/OR OBSTRUCTIONS TO VISIBILITY.

* THESE STATIONS ARE NOT UNDER NWS QUALITY CONTROL. THEY DO NOT
   REPORT WEATHER SUCH AS PRECIPITATION OR FOG.

MTZ001>007-043-301000-
WEST OF THE DIVIDE
CITY           SKY/WX    TMP DP  RH WIND       PRES   REMARKS
KALISPELL      FOG       39  39 100 CALM      30.26R VSB 3/4
MISSOULA       FOG       36  36 100 CALM      30.29R VSB 3/4
BUTTE          CLOUDY    30  27  89 S3        30.29S
MULLAN PASS    FOG       36  36 100 S6        30.22F VSB M1/4 WCI  31
* ANACONDA     MOCLDY    34  28  79 S5         N/A   WCI  29
* DEER LODGE   PTCLDY    30  27  89 N/A        N/A
* ESSEX        N/A       38  37  96 N/A        N/A
* HAMILTON APT MOCLDY    39  36  89 S1         N/A
* LIBBY APT    CLEAR     43  39  86 N/A        N/A
* LINCOLN      N/A       29  28  96 SW1        N/A
* LOOKOUT PASS N/A       40  40 100 S9         N/A   WCI  34
* POLSON       N/A       37  37 100 N/A        N/A
* RONAN APT    PTCLDY    34  32  92 N/A        N/A
* SEELEY LAKE  N/A       29  28  96 SE2        N/A
* THOMP F APT  PTCLDY    37  26  64 N3G9       N/A
* YAAK HILL    N/A       44  41  89 N/A        N/A
$$

MTZ008-052>055-301000-
SOUTHWEST MONTANA
CITY           SKY/WX    TMP DP  RH WIND       PRES   REMARKS
BOZEMAN        CLEAR     28  25  89 SE8       30.29R WCI  20
DILLON         MOCLDY    36  28  73 SW9       30.28R WCI  29
W YELLOWSTONE  PTCLDY    23  23 100 SW3       30.33R
* ENNIS APT    PTCLDY    34  25  70 NE5        N/A   WCI  29
* THREE FORKS  PTCLDY    28  28 100 N/A        N/A
* BOULDER HILL N/A       34  24  67 S8         N/A   WCI  27
* RAYNOLDS PAS N/A       31  16  54 S4         N/A
* WHITEHALL    N/A       32  26  79 NW3        N/A
* WISE RIVER   N/A       29  27  92 S3         N/A
$$

MTZ009>010-012-014-046-048-049-054-301000-
EAST SLOPES AND CENTRAL MONTANA
CITY           SKY/WX    TMP DP  RH WIND       PRES   REMARKS
CUT BANK       CLEAR     36  30  79 W5        30.20R WCI  32
GREAT FALLS    CLEAR     37  34  89 S10       30.22R WCI  30
HELENA         PTCLDY    37  30  76 CALM      30.27R
MALMSTROM AFB  CLEAR     37  32  82 SW9       30.24R WCI  30
* CONRAD       CLEAR     27  25  92 N/A        N/A
* DEARBORN     N/A       36  32  85 SW2        N/A
* EAST GLACIER N/A       41  31  68 W14G20     N/A
* MONARCH      N/A       36  23  59 S6         N/A   WCI  31
* SAINT MARY   N/A       43  32  65 S6G17      N/A
* SWEET GRASS  N/A       41  31  68 W9         N/A
$$

MTZ011-013-016-021-035-040-045-047-050-051-301000-
NORTH CENTRAL MONTANA
CITY           SKY/WX    TMP DP  RH WIND       PRES   REMARKS
HAVRE          CLEAR     36  32  85 SW8       30.20R WCI  30
LEWISTOWN      CLEAR     34  27  76 S3        30.24R
* N BAR RANCH  CLEAR     36  28  73 CALM      30.25R
* CHESTER      N/A       32  27  82 E2         N/A
* DENTON       N/A       38  31  76 SW9        N/A   WCI  32
* JUDITH GAP   N/A       38  28  67 E6         N/A   WCI  33
* LOMA         N/A       37  31  79 SW3        N/A
$$

MTZ017>020-022>027-061-062-301000-
NORTHEAST MONTANA
CITY           SKY/WX    TMP DP  RH WIND       PRES   REMARKS
GLASGOW        CLEAR     28  27  96 NE7       30.22R WCI  21
GLENDIVE       CLEAR     34  30  85 NW9       30.19R WCI  27
JORDAN         CLEAR     28  27  96 W5        30.20R WCI  22
SIDNEY         CLOUDY    36  32  85 NW8       30.21R WCI  30
WOLF POINT     CLOUDY    37  34  89 NW3       30.23R
* BEAVER HILL  N/A       33  31  92 N/A        N/A
* CIRCLE       N/A       32  29  89 N/A        N/A
* LINDSAY DVD  N/A       30  29  96 NW4        N/A
* NAVAJO       N/A       34  31  89 N15        N/A   WCI  24
* PLENTYWOOD A N/A       28 N/A N/A N/A        N/A
* POPLAR APT   N/A       37  34  89 N/A        N/A
$$

MTZ028>042-056>058-301000-
SOUTHCENTRAL AND SOUTHEAST MONTANA
CITY           SKY/WX    TMP DP  RH WIND       PRES   REMARKS
BAKER          CLEAR     32  30  92 W7        30.17R WCI  25
BILLINGS       CLEAR     45  28  51 SW10      30.24R
LIVINGSTON     CLEAR     30  27  89 NW6       30.28R WCI  24
MILES CITY     CLEAR     36  28  73 NW8       30.19R WCI  30
* FORSYTH APT  CLEAR     45  32  60 W5         N/A
* LAUREL APT   CLEAR     36  25  64 N/A        N/A
* ROUNDUP APT  CLEAR     39  27  62 N/A        N/A
* ALZADA       N/A       38  30  73 W3         N/A
* HYSHAM       N/A       42  26  53 W3         N/A
* LAME DEER    N/A       44  30  58 NW9        N/A
* REED POINT   N/A       30  28  92 W1         N/A
* ROSCOE HILL  N/A       40  17  39 SE8        N/A   WCI  35
$$

REGIONAL REPORTS...DAKOTAS
CITY           SKY/WX    TMP DP  RH WIND       PRES   REMARKS
WILLISTON      CLOUDY    37  34  89 N12       30.18R WCI  29
DICKINSON      CLEAR     34  30  85 W8        30.11R WCI  27
BEACH          N/A       32  32 100 CALM      30.17R
CROSBY         CLOUDY    36  36 100 N8        30.19R WCI  30
TIOGA          CLOUDY    32  32 100 N8        30.18R WCI  25
BISMARCK       PTCLDY    37  36  96 NW8       30.06R WCI  31
GRAND FORKS    CLOUDY    37  34  89 NE9       30.03R WCI  30
FARGO          LGT RAIN  39  37  93 SE5       30.00R WCI  35
BUFFALO SD     CLEAR     37  30  76 NW13      30.08R WCI  29
RAPID CITY     CLEAR     43  32  65 NW12      30.14S
$$

REGIONAL REPORTS...WYOMING/IDAHO/WASHINGTON
CITY           SKY/WX    TMP DP  RH WIND       PRES   REMARKS
GILLETTE       PTCLDY    37  25  62 W12       30.23R WCI  29
SHERIDAN       CLEAR     39  27  62 W3        30.25R
CODY           PTCLDY    34  21  59 S5        30.27R WCI  29
YELLOWSTONE LA PTCLDY    25  21  85 NW3       30.36S
SALMON         CLOUDY    37  32  82 CALM      30.28R
MULLAN PASS    FOG       36  36 100 S6        30.22S VSB M1/4 WCI  31
SAND POINT     MOCLDY    43  43 100 CALM      30.22S
SPOKANE        FOG       45  45 100 NE8       30.17S VSB 3/4
$$

REGIONAL REPORTS...ALBERTA
CITY           SKY/WX    TMP DP  RH WIND       PRES   REMARKS
EDMONTON       MOCLDY    32  28  85 SE10      30.21R WCI  24

$$




USA.gov is the U.S. government's official web portal to all federal, state and local government web resources and services.